Theta_e
313 313 313 314 315 317 317 317 317 317 317 317 316 313 306 299 296 297 297 296 296 296 296 295 295 294 295
313 313 313 313 314 314 315 315 315 315 314 310 304 301 296 295 295 296 293 292 294 294 293 293 293 293 293
313 313 314 314 314 314 314 313 309 306 304 303 300 295 294 294 294 292 288 294 293 292 292 291 291 291 291
313 312 313 314 314 315 309 306 304 301 300 298 295 296 296 293 289 288 293 292 290 290 289 288 289 289 290
313 313 314 313 313 312 307 302 299 298 297 295 295 292 290 287 289 292 290 289 287 287 287 288 288 288 288
314 314 315 313 311 306 301 297 296 295 294 292 291 290 289 285 291 289 287 286 285 285 286 287 287 286 285
315 315 314 311 306 300 299 297 294 291 290 290 289 287 285 284 290 287 285 284 284 284 285 286 284 284 284
313 310 306 302 301 299 296 293 290 288 286 287 287 285 283 285 288 286 282 282 282 282 284 284 282 282 282
297 297 296 295 295 295 291 289 288 287 284 282 283 283 283 284 284 282 281 280 280 281 282 280 281 281 279
294 294 293 291 291 290 288 286 285 284 283 282 282 281 281 281 282 281 281 280 279 278 278 278 279 279 278
290 289 287 284 283 283 282 283 283 282 282 281 281 280 280 280 280 280 279 278 277 277 277 277 277 278 277
286 282 281 281 281 281 281 281 282 281 280 279 279 278 278 278 278 278 278 277 276 276 276 276 276 276 277
282 280 280 279 279 280 280 279 279 278 278 278 277 277 276 276 276 276 276 276 276 275 275 275 275 275 275
280 279 279 278 278 280 280 279 277 276 276 276 276 276 277 277 276 276 276 275 275 275 275 275 275 275 275
279 278 278 278 277 277 277 277 276 275 275 275 276 276 276 276 275 276 275 275 275 275 275 274 274 275 275
279 278 277 277 276 276 276 275 275 273 273 274 274 274 274 275 275 275 274 274 274 274 274 274 274 275 275
278 277 276 276 276 275 275 275 274 273 273 272 272 271 268 265 274 275 274 274 273 274 274 274 274 275 275
Wind_Speed
15 18 16 14 12 12 13 16 18 20 20 22 21 18 10 8 9 8 9 7 7 9 11 14 15 17 19
17 19 21 18 16 17 18 18 19 18 19 14 7 4 3 3 6 9 11 8 9 11 14 17 18 21 21
17 17 19 17 17 19 18 17 15 12 9 9 7 2 3 4 9 11 10 5 10 13 15 17 17 21 22
23 17 17 16 16 20 16 16 14 12 9 6 5 6 10 7 8 7 4 8 11 14 15 19 20 19 21
20 16 15 15 16 19 20 17 9 8 5 5 6 4 3 7 6 5 3 7 12 15 18 18 18 19 21
20 17 19 18 19 18 14 6 3 6 2 3 2 1 3 7 4 4 7 11 15 17 18 16 18 22 24
22 25 25 26 20 14 10 8 5 1 1 2 2 3 4 4 3 5 10 13 18 19 16 16 22 25 27
24 21 14 14 15 10 10 10 10 5 3 1 2 2 6 1 5 4 13 15 21 20 17 19 26 27 26
15 16 16 13 11 12 11 11 3 2 3 2 5 8 5 2 2 8 13 21 22 20 19 25 28 29 34
16 14 13 12 9 9 10 9 7 3 4 1 4 8 4 2 4 13 14 23 23 19 25 28 30 32 33
20 19 17 15 14 12 10 8 11 5 3 4 3 5 4 7 12 11 22 23 23 23 30 31 30 28 32
21 19 18 16 14 12 11 11 12 12 7 6 3 5 5 5 6 15 22 21 15 33 32 33 33 33 30
21 18 15 15 13 15 15 13 12 11 9 8 6 6 6 7 10 17 19 19 15 29 32 33 36 37 36
26 22 18 15 14 12 11 8 11 11 9 8 8 9 10 11 15 17 15 14 29 31 31 31 33 34 32
25 22 19 17 16 12 12 11 10 8 9 9 10 10 9 11 12 13 20 25 28 32 34 28 25 31 30
24 21 19 17 16 14 12 12 11 11 12 14 17 14 14 7 8 12 19 23 30 31 32 26 28 35 30
22 20 18 16 13 13 11 9 10 10 13 13 16 15 5 1 12 17 21 28 29 30 28 25 28 37 34
Wind_Direction
249 257 261 253 253 248 248 261 261 262 260 254 259 271 281 297 301 310 326 335 350 342 338 336 333 336 337
251 253 261 264 264 260 260 260 253 243 248 244 249 258 262 281 305 314 322 322 349 344 346 341 335 335 336
249 257 265 260 253 258 254 235 223 227 232 247 232 166 256 286 296 317 318 323 346 346 341 338 334 331 331
252 252 249 245 237 232 215 217 213 223 229 251 272 279 291 308 319 341 18 1 349 348 345 338 334 333 330
245 250 242 226 219 225 216 208 207 221 245 267 293 309 308 344 7 59 6 345 352 347 341 341 339 335 332
228 235 244 234 230 210 185 172 160 213 250 265 268 243 295 349 99 11 9 9 353 348 346 348 342 336 332
232 230 229 230 216 188 185 161 141 287 34 216 222 329 311 345 144 354 6 1 352 347 350 343 343 337 330
240 229 219 199 187 184 175 142 121 93 52 196 278 330 322 143 181 319 344 353 346 350 349 340 339 335 330
143 149 142 140 152 143 144 144 100 121 50 22 359 342 324 194 206 344 346 346 346 350 350 344 341 336 333
129 121 113 119 129 133 150 152 127 119 20 31 24 11 327 299 338 338 342 348 347 353 349 345 341 336 334
124 123 118 119 114 115 124 142 135 111 54 49 47 13 349 317 319 333 344 346 348 351 349 346 343 340 332
126 117 119 114 105 104 105 104 98 101 78 53 77 9 354 300 293 317 337 347 350 349 347 347 346 343 342
125 122 117 111 110 115 106 95 86 77 61 40 27 353 324 297 298 316 332 341 349 346 347 347 347 345 333
134 130 125 123 117 117 119 111 83 69 47 23 4 352 344 333 311 316 342 333 339 345 340 340 344 339 329
131 130 125 120 109 105 99 90 84 57 31 23 15 3 349 326 314 340 336 333 339 340 339 327 327 326 323
135 131 126 118 107 98 93 86 82 62 41 28 12 9 5 353 336 326 327 327 336 337 335 321 322 328 324
132 128 123 115 113 106 98 89 70 57 44 37 20 24 31 304 329 348 326 333 333 331 327 318 312 315 321